Weather History for KHBG - October, 2012

Change the Weather History Date:

Wednesday, October 24, 2012

  Actual Average Record
Temperature  
Mean Temperature 71 °F 64 °F  
Max Temperature 83 °F 77 °F 88 °F (2001)
Min Temperature 58 °F 51 °F 34 °F (1996)
Degree Days  
Heating Degree Days 0 4  
Month to date heating degree days 19 44  
Since 1 July heating degree days 19 46  
Cooling Degree Days 6 3  
Month to date cooling degree days 86 116  
Year to date cooling degree days 2695 2343  
Growing Degree Days 20 (Base 50)    
Moisture  
Dew Point 60 °F    
Average Humidity 74    
Maximum Humidity 100    
Minimum Humidity 47    
Precipitation  
Precipitation 0.00 in 0.13 in 2.24 in (1951)
Month to date precipitation 0.10 2.97  
Year to date precipitation 59.63 49.21  
Sea Level Pressure  
Sea Level Pressure 30.07 in    
Wind  
Wind Speed 1 mph (ESE)    
Max Wind Speed 8 mph    
Max Gust Speed 14 mph    
Visibility 4 miles    
Events Fog    
T = Trace of Precipitation, MM = Missing Value Source: NWS Daily Summary

Daily Weather History Graph

Daily Weather History Graph

Search for Another Location

Airport or City:

Trip Planner

Search our weather history database for the weather conditions in past years. The results will help you decide how hot, cold, wet, or windy it might be!

Date:

Astronomy

Oct. 24, 2012 Rise Set
Actual Time 7:06 AM CDT 6:15 PM CDT
Civil Twilight 6:42 AM CDT 6:39 PM CDT
Nautical Twilight 6:13 AM CDT 7:08 PM CDT
Astronomical Twilight 5:45 AM CDT 7:36 PM CDT
Moon 3:15 PM CDT (10/24) 2:20 AM CDT (10/24)
Length of Visible Light 11h 57m
Length of Day
11h 08m
Waxing Gibbous, 76% of the Moon is Illuminated
Oct 24
Waxing Gibbous
Oct 29
Full
Nov 6
Last Quarter
Nov 13
New
Nov 20
First Quarter

Hourly Weather History & Observations

Time (CDT) Temp. Heat Index Dew Point Humidity Pressure Visibility Wind Dir Wind Speed Gust Speed Precip Events Conditions
12:53 AM 63.0 °F - 60.1 °F 90% 30.07 in 10.0 mi Calm Calm - N/A   Clear
1:19 AM 60.8 °F - 57.2 °F 88% 30.08 in 2.5 mi Calm Calm - N/A   Partly Cloudy
1:22 AM 60.8 °F - 57.2 °F 88% 30.08 in 1.0 mi Calm Calm - N/A   Mist
1:31 AM 60.8 °F - 60.8 °F 100% 30.08 in 0.5 mi Calm Calm - N/A Fog Fog
1:53 AM 61.0 °F - 59.0 °F 93% 30.06 in 0.5 mi Calm Calm - N/A Fog Fog
2:10 AM 60.8 °F - 59.0 °F 94% 30.07 in 0.2 mi Calm Calm - N/A Fog Fog
2:26 AM 60.8 °F - 59.0 °F 94% 30.07 in 0.8 mi Calm Calm - N/A   Mist
2:43 AM 60.8 °F - 59.0 °F 94% 30.08 in 0.2 mi Calm Calm - N/A Fog Fog
2:53 AM 60.1 °F - 59.0 °F 96% 30.07 in 0.2 mi Calm Calm - N/A Fog Fog
3:53 AM 61.0 °F - 60.1 °F 97% 30.07 in 0.2 mi Calm Calm - N/A Fog Fog
4:53 AM 61.0 °F - 60.1 °F 97% 30.07 in 0.2 mi Calm Calm - N/A Fog Fog
5:53 AM 60.1 °F - 59.0 °F 96% 30.09 in 0.2 mi Calm Calm - 0.01 in Fog Fog
6:23 AM 59.0 °F - 57.2 °F 94% 30.11 in 0.5 mi Calm Calm - N/A Fog Fog
6:33 AM 59.0 °F - 57.2 °F 94% 30.11 in 0.2 mi Calm Calm - N/A Fog Fog
6:49 AM 59.0 °F - 57.2 °F 94% 30.11 in 0.5 mi Calm Calm - N/A Fog Fog
6:53 AM 57.9 °F - 57.0 °F 97% 30.11 in 0.5 mi Calm Calm - N/A Fog Fog
7:13 AM 57.2 °F - 57.2 °F 100% 30.12 in 0.2 mi Calm Calm - N/A Fog Fog
7:53 AM 59.0 °F - 57.9 °F 96% 30.12 in 0.2 mi Calm Calm - N/A Fog Fog
8:06 AM 59.0 °F - 57.2 °F 94% 30.13 in 3.0 mi Calm Calm - N/A   Mostly Cloudy
8:53 AM 63.0 °F - 60.1 °F 90% 30.14 in 6.0 mi Calm Calm - N/A   Clear
9:53 AM 69.1 °F - 62.1 °F 78% 30.14 in 10.0 mi East 3.5 mph - N/A   Mostly Cloudy
10:53 AM - - - N/A% 30.13 in - North - - N/A   Unknown
11:53 AM - - - N/A% 30.10 in - North - - N/A   Unknown
12:53 PM 80.1 °F 81.1 °F 61.0 °F 52% 30.06 in - Variable 4.6 mph - N/A   Clear
1:53 PM 81.0 °F 81.3 °F 59.0 °F 47% 30.04 in 10.0 mi Variable 3.5 mph - N/A   Unknown
2:53 PM 82.0 °F 82.7 °F 61.0 °F 49% 30.02 in - SSE 3.5 mph - N/A   Unknown
3:53 PM 82.0 °F 82.4 °F 60.1 °F 47% 30.01 in 10.0 mi Variable 4.6 mph - N/A   Clear
4:53 PM 82.0 °F 82.4 °F 60.1 °F 47% 30.00 in 10.0 mi Calm Calm - N/A   Clear
5:53 PM 80.1 °F 81.1 °F 61.0 °F 52% 30.00 in 10.0 mi ENE 3.5 mph - N/A   Clear
6:53 PM 70.0 °F - 63.0 °F 78% 30.02 in 10.0 mi Calm Calm - N/A   Clear
7:53 PM 68.0 °F - 64.0 °F 87% 30.03 in 10.0 mi Calm Calm - N/A   Partly Cloudy
8:53 PM 66.0 °F - 62.1 °F 87% 30.02 in 10.0 mi Calm Calm - N/A   Clear
9:53 PM 64.9 °F - 62.1 °F 90% 30.03 in 10.0 mi Calm Calm - N/A   Clear
10:53 PM 64.0 °F - 60.1 °F 87% 30.04 in 10.0 mi Calm Calm - N/A   Clear
11:53 PM 62.1 °F - 59.0 °F 90% 30.03 in 10.0 mi Calm Calm - N/A   Clear